Location: Buch am Rannenberg
(48.6989°N, 10.6399°E)
Time: 07:13:10
(UTC+00:00)

SL-4 R/B - Pass Details

Date: 07 June 2020
Orbit: 428 x 666 km, 51.6° (Epoch: 04 July)

Event Time Altitude Azimuth Distance (km) Brightness Sun altitude
Rises 01:07:56 0° 292° (WNW) 3,008 5.7 -14.3°
Reaches altitude 10° 01:10:20 10° 288° (WNW) 2,090 4.9 -14.1°
Maximum altitude 01:15:04 55° 212° (SSW) 792 2.4 -13.8°
Drops below altitude 10° 01:19:37 10° 135° (SE) 2,015 4.7 -13.4°
Sets 01:21:55 0° 131° (SE) 2,890 5.6 -13.2°
